Zurück zum Katalog

SCD 2

AktivWissenschaftLEO
NORAD 25504·PAYLOAD·🇧🇷 Brazil

Gestartet Oct 23, 1998 von Cape Canaveral Space Force Station

Loading…

Nächste Überflüge (nächste 24 Stunden)

TLE

AktuellSource: Space-Track

Epoche: Sep 14, 2026, 06:52 UTC

1 25504U 98060A   26257.28646880  .00000357  00000-0  48735-4 0  9999
2 25504  24.9945 242.6752 0016660 345.7625  36.9124 14.45552376473236

Verfolge SCD 2 in Echtzeit mit AllMySat

Download on the App Store